Location: Newark
(44.5425°N, 10.7801°E)
Time: 01:00:42
(UTC+00:00)

N. Korean satellite - Pass Details

Date: 01 February 2020
Orbit: 456 x 505 km, 97.2° (Epoch: 20 February)

Event Time Altitude Azimuth Distance (km) Brightness Sun altitude
Rises 05:50:45 0° 1° (N) 2,563 10.1 -8.5°
Reaches altitude 10° 05:53:01 10° 349° (N) 1,687 9.0 -8.1°
Maximum altitude 05:56:07 27° 290° (WNW) 974 7.5 -7.6°
Drops below altitude 10° 05:59:14 10° 231° (SW) 1,696 9.0 -7.0°
Sets 06:01:31 0° 219° (SW) 2,581 10.0 -6.6°
